Fresno, CA

4:00 AM PST on November 20, 2019 (GMT -0800)
Fresno Yosemite International

Weather History for KFAT - September, 2019

Change the Weather History Date:

Wednesday, September 25, 2019

  Actual Average Record
Temperature  
Mean Temperature 83 °F 74 °F  
Max Temperature 98 °F 88 °F 100 °F (1963)
Min Temperature 68 °F 59 °F 43 °F (1948)
Degree Days  
Heating Degree Days 0    
Month to date heating degree days 0  
Since 1 July heating degree days 0  
Cooling Degree Days 18    
Month to date cooling degree days 349  
Year to date cooling degree days 2290  
Growing Degree Days 33 (Base 50)    
Moisture  
Dew Point 51 °F    
Average Humidity 38    
Maximum Humidity 59    
Minimum Humidity 17    
Precipitation  
Precipitation 0.00 in 0.01 in 0.85 in (1982)
Month to date precipitation 0.00 0.12  
Year to date precipitation 9.52 7.98  
Snow  
Snow 0.00 in - - ()
Month to date snowfall 0.0  
Since 1 July snowfall 0.0  
Since 1 September snowfall 0.0  
Snow Depth 0.00 in    
Sea Level Pressure  
Sea Level Pressure 29.77 in    
Wind  
Wind Speed 4 mph (NNW)    
Max Wind Speed 9 mph    
Max Gust Speed 12 mph    
Visibility 10 miles    
Events      
T = Trace of Precipitation, MM = Missing Value Source: NWS Daily Summary

Daily Weather History Graph

Daily Weather History Graph

Search for Another Location

Airport or City:

Astronomy

Sep. 25, 2019 Rise Set
Actual Time 6:49 AM PDT 6:51 PM PDT
Civil Twilight 6:23 AM PDT 7:17 PM PDT
Nautical Twilight 5:53 AM PDT 7:47 PM PDT
Astronomical Twilight 5:22 AM PDT 8:17 PM PDT
Moon 2:56 AM PDT (9/25) 5:20 PM PDT (9/25)
Length of Visible Light 12h 53m
Length of Day
12h 02m
Waning Crescent, 13% of the Moon is Illuminated
Sep 25
Waning Crescent
Sep 28
New
Oct 5
First Quarter
Oct 13
Full
Oct 21
Last Quarter

Hourly Weather History & Observations

Time (PDT) Temp. Heat Index Dew Point Humidity Pressure Visibility Wind Dir Wind Speed Gust Speed Precip Events Conditions
12:53 AM 73.9 °F - 54.0 °F 50% 29.84 in 10.0 mi Calm Calm - N/A   Mostly Cloudy
1:53 AM 73.0 °F - 53.1 °F 49% 29.83 in 10.0 mi Calm Calm - N/A   Scattered Clouds
2:53 AM 71.1 °F - 53.1 °F 53% 29.82 in 10.0 mi SE 3.5 mph - N/A   Scattered Clouds
3:53 AM 70.0 °F - 52.0 °F 53% 29.81 in 10.0 mi ESE 5.8 mph - N/A   Partly Cloudy
4:53 AM 70.0 °F - 53.1 °F 55% 29.80 in 10.0 mi ESE 6.9 mph - N/A   Partly Cloudy
5:53 AM 71.1 °F - 52.0 °F 51% 29.81 in 10.0 mi Calm Calm - N/A   Partly Cloudy
6:53 AM 68.0 °F - 53.1 °F 59% 29.82 in 10.0 mi NNE 3.5 mph - N/A   Partly Cloudy
7:53 AM 71.1 °F - 52.0 °F 51% 29.82 in 10.0 mi East 4.6 mph - N/A   Scattered Clouds
8:53 AM 77.0 °F - 51.1 °F 40% 29.83 in 9.0 mi East 4.6 mph - N/A   Partly Cloudy
9:53 AM 81.0 °F - 51.1 °F 35% 29.83 in 10.0 mi SE 8.1 mph - N/A   Scattered Clouds
10:53 AM 84.9 °F - 52.0 °F 32% 29.81 in 10.0 mi SSE 4.6 mph - N/A   Partly Cloudy
11:53 AM 87.1 °F - 52.0 °F 30% 29.81 in 10.0 mi SSW 5.8 mph - N/A   Scattered Clouds
12:53 PM 91.0 °F - 50.0 °F 24% 29.78 in 10.0 mi WNW 3.5 mph - N/A   Scattered Clouds
1:53 PM 93.9 °F - 48.9 °F 21% 29.75 in 10.0 mi WNW 4.6 mph - N/A   Scattered Clouds
2:53 PM 95.0 °F - 48.0 °F 20% 29.73 in 10.0 mi WNW 3.5 mph - N/A   Partly Cloudy
3:53 PM 97.0 °F - 46.9 °F 18% 29.71 in 10.0 mi Calm Calm - N/A   Partly Cloudy
4:53 PM 97.0 °F - 45.0 °F 17% 29.69 in 10.0 mi Calm Calm - N/A   Partly Cloudy
5:53 PM 97.0 °F - 45.0 °F 17% 29.69 in 10.0 mi NW 3.5 mph - N/A   Partly Cloudy
6:53 PM 93.9 °F - 50.0 °F 22% 29.69 in 10.0 mi NW 6.9 mph - N/A   Scattered Clouds
7:53 PM 90.0 °F 87.5 °F 53.1 °F 28% 29.71 in 10.0 mi NW 6.9 mph - N/A   Partly Cloudy
8:53 PM 87.1 °F 84.9 °F 53.1 °F 31% 29.73 in 9.0 mi NW 5.8 mph - N/A   Clear
9:53 PM 82.9 °F 81.8 °F 53.1 °F 36% 29.74 in 10.0 mi NNW 4.6 mph - N/A   Clear
10:53 PM 82.0 °F 81.2 °F 53.1 °F 37% 29.74 in 7.0 mi NW 4.6 mph - N/A   Clear
11:53 PM 80.1 °F 80.0 °F 54.0 °F 40% 29.74 in 10.0 mi NNW 3.5 mph - N/A   Clear